Regional Weather Roundup
Issued by NWS Midland/Odessa, TX

Skip options and go directly to product.
Home | Oldest Version | Next Version | Current Version | All | Text Only | Save Text | Print | Product List | Glossary On

Skip product version selection by date and time.   
881
ASUS44 KMAF 181201
RWRMAF
MIDLAND AREA WEATHER ROUNDUP
NATIONAL WEATHER SERVICE MIDLAND TX
700 AM CDT SAT APR 18 2015

...IN SOUTHWEST TEXAS AND SOUTHEAST NEW MEXICO...

CITY           SKY/WX    TMP DP  RH WIND       PRES   REMARKS
ALPINE         PTCLDY    46  40  77 CALM      30.06F
ANDREWS        FAIR      53  31  42 NW12      29.96R
ARTESIA        CLEAR     39  27  60 W10       29.99S WCI  32
BIG SPRING     PTCLDY    56  54  91 SE7       29.95S
CARLSBAD       PTCLDY    44  26  49 W12       29.97S WCI  38
DRYDEN           N/A     63  61  93 NE8       29.91S
FORT STOCKTON  CLOUDY    57  31  37 W7        29.96R
GUAD PASS      NOT AVBL
HOBBS          CLEAR     41  32  70 NW9       29.97S WCI  35
MARFA          MOCLDY    45  34  65 NW7       30.04S
MIDLAND AIRPK  PTCLDY    55  55 100 S5        29.94R FOG
MIDLAND INTL   PTCLDY    50  48  93 CALM      29.92F
ODESSA         PTCLDY    52  43  71 CALM      29.94S
PECOS          PTCLDY    49  33  52 S6        29.93F
PRESIDIO       FAIR      56  40  55 N5        29.95S
SEMINOLE       PTCLDY    42  32  67 NW9       29.96R WCI  37
SNYDER         PTCLDY   N/A N/A N/A S6        29.93S
WINK           MOCLDY    54  25  32 W3        29.92F
$$
...OTHER STATIONS IN TEXAS...

CITY           SKY/WX    TMP DP  RH WIND       PRES   REMARKS
ABILENE        CLOUDY    60  59  96 S5        29.94S FOG
AMARILLO       CLEAR     41  41 100 SW6       29.94S FOG     WCI  37
AUSTIN         CLOUDY    65  65 100 NE8       29.85R FOG
BROWNSVILLE    CLOUDY    74  72  93 E5        29.82S
CORPUS CHRISTI CLOUDY    70  68  93 N3        29.82R
DALLAS FTW     PTCLDY    59  58  96 NE5       29.88S
DEL RIO        CLOUDY    64  63  96 N7        29.88F
EL PASO        PTCLDY    50  10  20 SW9       29.99S
HOUSTON INT    MOCLDY    68  66  93 NE3       29.84R
LUBBOCK        FOG       50  50 100 NW10      29.93S VSB 1/8
SAN ANGELO     CLOUDY    58  56  93 CALM      29.93F
SAN ANTONIO    CLOUDY    68  65  90 CALM      29.86S FOG
WACO           PTCLDY    62  61  96 N6        29.87S
WICHITA FALLS  NOT AVBL
$$
...OTHER LOCATIONS IN NEW MEXICO...

CITY           SKY/WX    TMP DP  RH WIND       PRES   REMARKS
ALAMAGORDO     PTCLDY    39  19  45 SE7       30.00R WCI  34
ALBUQUERQUE    CLOUDY    37  24  59 CALM      29.99S
CANNON AFB     NOT AVBL
CLOVIS         CLEAR     34  21  60 W3        29.97S
HOLLOMAN AFB   NOT AVBL
ROSWELL        CLEAR     40  29  64 CALM      29.98S
RUIDOSO        CLEAR     37  14  38 S5        30.04S WCI  34
SANTA FE       LGT SNOW  32  30  92 N10       29.98S VSB 1   WCI  24
TRUTH OR CONSE CLEAR     45  17  32 NW10      30.00S WCI  40
TUCUMCARI      CLEAR     37  19  48 W6        29.93F WCI  32
$$

USA.gov is the U.S. government's official web portal to all federal, state and local government web resources and services.